Reflectivity
-19 -20 -20 8 -5 -20 -20 -20 -20 -20 -20 -18 25 28 -16 -20 5 -10 15 20 5 -20 -20 -20 -20 -20 -20 -20 -20 -20 -20 -20 -20 -20 -20 -20 -20 -20 -20 -20 -20 -20 -20 -20 -20
-19 -13 5 -7 -20 -11 -20 -20 -20 -20 -20 30 28 28 -17 2 -5 -7 18 4 17 -20 -20 -20 -20 -20 -20 -20 -20 -20 -20 -20 -20 -20 -20 -20 -20 -20 -20 -20 -20 -20 -20 -20 -20
-2 3 -4 -20 -5 -20 -20 -20 -20 -20 -20 -20 -20 28 27 -20 27 -0 21 4 -5 -20 -20 -20 -20 -20 -20 -20 -20 -20 -20 -20 -20 -20 -20 -20 -20 -20 -20 -20 -20 -20 -20 -20 -20
0 -1 -4 1 -20 -14 -20 -20 14 -20 -20 21 -6 -20 -14 -1 -20 -16 -20 -15 26 -19 -20 -20 -20 -20 -20 -20 -20 -20 -20 -20 -20 -20 -20 -20 -20 -20 -20 -20 -20 -20 -20 -20 -20
-1 -20 -14 20 0 18 11 11 22 -20 12 27 19 7 -16 20 18 -18 -20 -4 -11 -11 -20 -20 -20 -20 -20 -20 -20 -20 -20 -20 -20 -20 -20 -20 -20 -20 -20 -20 -20 -20 -20 -20 -20
-15 -20 -17 18 -10 -13 25 31 8 12 -9 -20 -19 28 25 20 -3 -20 -20 -20 -12 -1 -20 -20 -20 -20 -20 -20 -20 -20 -20 -20 -20 -20 -20 -20 -20 -20 -20 -20 -20 -20 -20 -20 -20
-20 -20 -20 -20 -20 -20 -20 24 30 14 -20 -20 -20 -20 25 11 2 -20 -20 -20 -15 13 -20 -20 -20 -20 -20 -20 -20 -20 -20 -20 -20 -20 -20 -20 -20 -20 -20 -20 -20 -20 -20 -20 -20
-20 -20 -20 -20 -20 -20 13 11 25 27 30 23 26 9 28 24 -20 -19 -20 -8 -20 4 -20 -20 -20 -20 -20 -20 -20 -20 -20 -20 -20 -20 -20 -20 -20 -20 -20 -20 -20 -20 -20 -20 -20
-20 -20 -20 -20 -20 -20 -20 -20 -2 19 35 25 -20 -20 3 -20 -13 -13 -20 -19 -4 12 -6 -20 -20 -20 -20 -20 -20 -20 -20 -20 -20 -20 -20 -20 -20 -20 -20 -20 -20 -20 -20 -20 -20
-20 -20 -20 -20 -20 -20 -20 -20 -20 -20 -10 15 33 26 -2 -12 -13 -12 -13 3 7 20 -9 -20 -20 -20 -20 -20 -20 -20 -20 -20 -20 -20 -20 -20 -20 -15 -20 -20 -20 -20 -20 -20 -20
-20 -20 -20 -20 -20 -20 -20 -20 10 -4 15 28 16 13 26 7 8 10 2 24 26 14 -14 -20 -20 -20 -20 -20 -20 -20 -20 -20 -20 -20 -20 -20 -20 -20 -20 -20 -20 -20 -20 -20 -20
-6 -20 -20 -20 -20 -20 -20 -20 -16 31 35 17 15 16 18 2 4 17 24 25 24 -3 -7 -20 -20 -20 -20 -20 -20 -20 -20 -20 -20 -20 -20 -20 -20 -20 -20 -20 -20 -20 -20 -20 -20
-20 -20 -20 -20 -20 -20 -20 -20 -20 13 28 36 30 24 26 23 17 2 9 17 13 25 -18 -17 -20 -20 -20 -20 -20 -20 -20 -20 -20 -20 -20 -20 -20 -20 -20 -20 -20 -20 -20 -20 -20
-20 -20 -20 -20 -20 -20 -20 -6 -7 7 22 30 24 22 30 30 26 7 -7 12 11 6 -13 -20 -20 -20 -20 -20 -20 -20 -20 -20 -20 -20 -20 -20 -20 -20 -20 -20 -20 -20 -20 -20 -20
-20 -20 -20 -20 -20 -20 -20 -20 -18 -20 -11 21 27 27 23 3 -15 -20 -9 -20 4 7 -20 -20 -20 -20 -20 -20 -20 -20 -20 -20 -20 -20 -20 -20 -20 -20 -20 -20 -20 -20 -20 -20 -20
-20 -20 -20 -20 -20 -20 -20 -20 -20 -12 4 29 24 14 26 25 23 17 20 6 0 -4 -20 -20 -20 -20 -20 -20 -20 -20 -20 -20 -20 -20 -20 -20 -20 -20 -20 -20 -20 -20 -20 -20 -20
-20 -20 -20 -20 -20 -20 -20 -20 -16 -3 -7 0 25 8 -20 -4 1 -7 -13 -10 -12 -5 -8 -11 -19 -20 -20 -20 -20 -20 -20 -20 -20 -20 -20 -20 -20 -20 -20 -20 -20 -20 -20 -20 -20
-20 -20 -20 -20 -20 -20 -20 -20 -19 14 -5 -20 -14 -16 -11 7 -8 -20 -20 -20 -20 -20 -4 -17 -11 -20 -20 -20 -20 -20 -20 -20 -20 -20 -20 -20 -20 -20 -20 -20 -20 -20 -20 -20 -20
-20 -20 -20 -20 -20 -20 -20 -20 13 -11 -7 -8 16 -18 -20 -20 -10 9 -19 -20 -20 -1 -9 -3 -20 -20 -20 -20 -20 -20 -20 -20 -20 -20 -20 -20 -20 -20 -20 -20 -20 -20 -20 -20 -20
-20 -20 -20 -20 -20 -20 -20 -20 -20 -20 -20 -20 -12 -13 -20 -20 -20 -20 -19 -12 -13 -1 19 -13 -16 -20 -20 -20 -20 -20 -20 -20 -20 -20 -20 -20 -20 -20 -20 -20 -20 -20 -20 -20 -20
-20 -20 -20 -20 -20 -20 -20 -20 -20 -20 -17 -6 -19 -20 -20 -20 8 -12 -20 -20 -10 -3 -20 7 -7 -20 -20 -20 -20 -20 -20 -20 -20 -20 -20 -20 -20 -20 -20 -20 -20 -20 -20 -20 -20
-20 -20 -20 -20 -20 -20 -20 -20 -20 -20 -20 -20 -18 -20 -20 -20 -20 -20 -20 -20 -20 -20 -20 -20 -20 -20 -20 -20 -20 -20 -20 -20 -20 -20 -20 -20 -20 -20 -20 -20 -20 -20 -20 -20 -20
-20 -20 -20 -20 -20 -20 -20 -20 -20 -20 -20 -18 -20 -20 -20 -20 -20 -20 -20 -20 -20 -20 -20 -20 -20 -20 -20 -20 -20 -20 -20 -20 -20 -20 -20 -20 -20 -20 -20 -20 -20 -20 -20 -20 -20
-20 -20 -20 -20 -20 -20 -20 -20 -20 -20 -20 -20 -1 -19 -20 -20 -20 -20 -20 -20 -20 -20 -20 -20 -20 -20 -20 -20 -20 -20 -20 -20 -20 -20 -20 -20 -20 -20 -20 -20 -20 -20 -20 -20 -20
-20 -20 -20 -20 -20 -20 -20 -20 -20 -20 -20 -20 -20 -20 -20 -20 -20 -20 -20 -20 -20 -20 -20 -20 -20 -20 -20 -20 -20 -20 -20 -20 -20 -20 -20 -20 -20 -20 -20 -20 -20 -20 -20 -20 -20
-20 -20 -20 -20 -20 -20 -20 -20 -20 -20 -20 -20 -20 -20 -20 -20 -20 -20 -20 -20 -20 -20 -20 -20 -20 -20 -20 -20 -20 -20 -20 -20 -20 -20 -20 -20 -20 -20 -20 -20 -20 -20 -20 -20 -20
-20 -20 -20 -20 -20 -20 -20 -20 -20 -20 -20 -20 -20 -20 -20 -20 -20 -20 -20 -20 -20 -20 -20 -20 -20 -20 -20 -20 -20 -20 -20 -20 -20 -20 -20 -20 -20 -20 -20 -20 -20 -20 -20 -20 -20
Wind_Speed
15 16 17 18 16 11 11 13 14 10 8 9 11 10 8 7 7 6 4 6 8 5 3 8 7 7 8 6 3 2 1 5 6 11 8 9 3 7 3 8 7 7 10 15 14
14 15 16 17 16 13 10 13 16 11 10 10 10 12 9 7 10 7 4 7 12 4 6 10 11 10 4 5 2 2 2 2 9 7 11 11 8 6 6 9 6 8 11 12 10
13 14 15 16 16 12 10 12 13 8 11 11 12 12 10 8 9 4 6 8 11 10 10 9 10 10 6 4 4 4 2 3 8 6 8 9 10 6 9 5 9 10 9 10 8
13 15 15 16 12 13 12 12 12 5 4 7 10 9 9 11 8 3 8 7 6 5 9 11 11 12 8 6 5 1 5 8 4 7 6 7 6 3 5 3 7 13 11 8 9
12 13 15 15 11 12 15 15 11 6 3 1 4 8 5 7 4 3 5 7 3 3 9 11 11 10 9 8 5 1 4 4 4 8 8 8 6 1 6 4 11 11 9 9 8
11 11 15 15 16 17 15 13 13 9 4 6 6 10 9 11 4 4 5 2 8 5 8 11 9 15 8 10 9 7 7 6 5 6 3 5 3 4 4 5 9 9 7 7 7
12 13 13 15 16 17 18 9 10 5 4 5 9 9 5 5 3 2 3 1 2 6 8 12 10 9 5 9 8 12 8 6 4 3 2 1 2 4 10 7 7 7 6 7 6
12 13 15 17 17 15 12 9 15 13 15 7 6 1 5 3 5 3 2 1 4 12 10 14 9 2 2 7 6 6 6 5 4 3 0 1 3 8 10 8 9 8 7 6 5
13 14 14 15 16 12 12 0 8 9 7 3 6 3 4 7 3 6 3 6 4 11 9 6 3 4 2 7 3 7 5 7 4 1 3 4 4 6 7 7 7 8 8 7 7
12 14 13 14 13 12 10 4 23 17 9 5 2 4 3 3 3 6 4 9 2 13 3 3 3 4 5 7 7 5 6 6 6 6 1 4 2 7 7 7 8 9 9 9 9
12 14 12 12 14 13 6 3 1 8 11 7 5 10 3 5 1 5 5 8 2 7 7 8 4 7 11 9 6 9 8 9 6 2 3 4 5 7 9 7 8 8 9 10 10
12 13 14 14 13 15 5 5 5 5 3 14 12 8 3 4 6 6 0 8 8 8 10 6 5 2 6 4 4 9 9 6 6 4 2 6 7 8 8 9 10 9 9 9 9
12 14 15 15 10 2 6 5 3 4 4 6 5 4 5 4 6 3 4 2 8 13 12 4 4 2 3 4 4 5 9 6 7 5 1 1 6 7 9 9 10 10 7 6 9
9 12 15 17 4 1 3 3 2 1 3 9 7 4 5 2 6 4 3 2 6 17 11 7 3 6 5 5 3 4 3 9 10 5 4 3 4 2 6 7 4 6 5 2 1
10 9 11 10 6 2 3 1 0 2 3 8 4 2 6 2 5 4 6 5 4 8 6 2 4 7 8 4 4 5 1 6 7 3 4 3 5 6 7 6 6 7 7 8 6
10 8 10 2 3 2 2 3 2 2 6 4 4 2 5 5 8 11 3 5 9 16 14 5 5 7 3 5 3 8 6 5 6 3 4 2 4 5 3 4 5 4 5 8 6
11 6 6 5 3 1 3 2 1 7 2 6 6 4 11 12 10 7 5 2 4 6 3 6 7 3 2 6 2 3 2 3 5 5 4 3 2 7 6 6 7 7 6 6 5
9 7 3 1 3 2 3 2 10 6 6 3 4 6 11 7 5 6 4 5 8 11 4 5 1 7 4 3 3 3 2 5 6 5 3 4 5 4 6 6 4 7 5 4 4
5 3 3 4 1 3 3 9 3 1 1 3 6 6 6 5 5 4 7 5 6 6 4 6 3 2 4 4 5 3 1 0 3 1 5 5 5 6 6 4 5 5 2 3 4
4 3 2 3 1 2 2 7 4 5 4 4 2 5 8 4 3 4 4 3 4 4 7 4 7 2 2 2 4 4 2 4 4 3 2 3 2 4 4 4 5 4 6 5 2
3 3 2 3 2 2 4 5 3 1 2 5 6 5 7 2 3 4 5 2 3 1 9 6 6 3 3 4 4 2 2 1 1 3 3 1 3 3 6 5 7 5 3 1 2
3 1 3 4 1 3 3 4 1 3 1 1 3 5 5 4 5 3 5 5 4 3 2 2 6 4 3 4 5 3 3 3 4 2 1 2 4 5 7 6 5 3 4 4 3
3 2 4 3 3 3 1 4 4 1 1 2 2 4 2 2 2 4 6 2 4 5 4 6 3 4 2 1 2 2 4 3 5 3 4 3 3 5 6 5 4 3 5 5 4
3 2 1 1 2 4 3 3 3 2 1 3 3 1 3 2 3 5 5 1 2 3 4 4 4 4 4 3 3 4 5 7 6 3 4 5 5 7 7 6 6 6 5 5 6
1 2 2 0 2 4 1 1 4 3 2 2 3 4 4 3 4 3 4 4 2 1 1 3 3 4 3 3 3 2 5 8 9 8 4 1 4 2 3 5 3 3 6 8 7
3 3 2 2 1 4 3 2 2 3 3 3 1 2 5 5 5 5 5 4 3 2 0 2 2 3 2 4 2 4 7 7 9 9 9 8 8 6 6 4 6 6 7 7 6
1 2 2 1 2 3 2 4 4 3 1 4 3 1 7 4 5 5 5 6 6 2 3 1 4 2 1 1 4 7 12 13 7 6 8 7 6 3 5 6 6 7 6 5 6
Wind_Direction
357 353 351 348 347 340 340 339 334 333 275 244 215 221 196 199 153 188 204 325 297 159 188 188 190 211 218 214 337 314 284 232 247 149 118 141 125 44 65 110 54 44 58 107 128
355 351 351 348 350 337 329 333 324 298 296 251 208 205 178 168 184 197 59 10 336 229 212 179 183 180 175 202 209 223 246 262 2 21 135 149 147 103 128 114 98 83 89 106 130
353 352 350 346 355 357 344 329 329 303 295 224 189 184 172 175 175 150 359 15 338 311 239 210 193 182 175 167 220 209 309 64 27 28 124 157 134 169 127 183 166 154 142 143 155
355 355 353 351 13 358 350 339 324 315 334 197 186 179 180 191 169 53 354 342 337 303 230 233 207 192 180 169 176 227 22 20 4 347 122 146 78 166 82 29 121 131 146 147 148
354 354 356 360 6 359 347 343 359 2 306 263 187 189 178 201 105 35 338 323 62 297 215 219 201 195 196 186 139 162 75 36 39 30 45 83 64 138 88 61 95 114 133 153 152
358 4 359 353 355 354 351 317 321 338 294 245 235 204 209 177 87 52 324 301 54 286 225 237 204 216 204 159 188 110 110 104 90 60 34 99 64 20 116 83 96 120 154 146 137
4 4 355 347 349 348 355 20 302 294 302 236 215 196 181 108 336 97 333 127 61 310 247 232 233 226 257 128 91 132 107 112 94 158 71 43 126 254 138 138 143 164 170 143 161
353 358 355 352 347 348 17 27 59 45 39 87 154 147 58 15 321 117 186 271 12 315 260 268 280 236 159 107 122 167 147 138 128 208 223 335 193 141 145 163 170 185 170 156 173
346 354 4 8 357 350 350 45 50 110 159 227 15 53 79 310 102 63 18 102 357 300 260 218 203 101 87 164 132 196 167 125 129 40 121 215 84 130 150 182 192 185 178 175 193
345 349 9 1 347 340 309 283 64 28 11 85 150 90 323 82 66 102 70 70 168 307 202 159 164 149 185 183 188 172 143 120 133 176 233 175 269 150 179 198 220 200 190 184 194
343 344 350 352 346 346 304 256 228 18 31 359 28 86 62 341 288 89 102 87 332 260 167 200 154 187 187 191 219 154 142 124 78 98 198 207 245 196 180 203 229 244 200 190 190
337 338 338 345 342 353 24 69 52 143 45 5 33 59 23 335 111 97 72 143 213 203 157 155 179 76 204 122 248 175 138 99 72 131 190 190 248 245 206 201 201 215 235 209 176
335 339 339 337 320 317 85 78 4 177 87 18 357 5 311 336 89 87 336 169 184 185 154 125 81 297 188 142 210 157 142 148 152 157 235 349 281 215 223 208 195 206 206 222 181
327 339 346 327 292 339 84 86 70 246 84 8 359 28 312 21 71 197 249 276 241 162 127 77 223 193 116 79 1 82 25 124 136 133 154 157 269 224 183 192 200 180 167 271 312
309 335 337 333 324 326 52 24 77 212 65 345 356 318 270 79 159 354 241 241 112 86 86 172 113 95 57 341 333 150 181 135 169 104 93 185 70 261 87 176 186 204 203 193 206
310 319 330 222 216 62 327 318 253 250 45 24 310 349 139 173 132 217 277 165 75 87 75 76 37 58 59 68 86 146 125 85 61 68 52 37 114 290 134 106 89 59 105 98 94
310 311 319 289 356 315 266 227 2 44 163 356 36 132 103 104 137 149 154 117 143 95 62 79 56 80 78 71 347 272 160 47 23 23 203 311 44 251 123 71 98 89 91 124 136
305 302 183 305 320 301 236 236 51 30 55 170 129 95 85 85 102 142 124 70 25 99 132 107 349 351 330 8 169 51 82 143 159 167 200 47 227 246 101 74 70 102 73 82 159
315 220 251 113 222 280 262 50 51 85 47 95 135 88 101 120 132 81 77 47 28 4 114 122 46 111 19 43 355 185 131 350 94 49 72 197 242 56 66 126 131 124 124 176 163
294 236 116 115 200 246 50 100 83 45 347 275 55 192 131 124 167 127 115 343 21 349 320 134 105 91 145 271 43 39 155 66 358 103 215 265 204 216 43 79 120 108 59 50 71
259 253 110 158 172 259 78 87 122 179 319 358 0 49 68 44 313 76 55 85 49 275 277 192 123 156 188 216 147 125 135 40 84 112 154 155 261 52 136 125 109 94 115 204 238
281 276 179 168 42 67 43 116 89 121 179 329 307 52 42 317 35 64 102 50 349 314 7 51 117 139 80 54 37 358 327 193 112 201 289 159 263 89 111 118 121 4 19 359 328
285 21 170 179 74 71 101 75 337 195 144 231 99 7 345 40 71 56 83 39 1 40 29 351 98 96 42 52 79 246 195 283 77 47 221 125 242 132 167 167 79 70 13 357 10
293 3 6 74 303 103 161 105 117 96 17 337 68 236 204 109 340 140 126 94 20 72 322 304 16 71 142 132 109 183 199 184 164 135 227 215 144 183 195 50 40 18 332 357 358
260 44 350 195 49 84 269 172 152 149 253 244 182 337 334 134 154 103 101 147 149 151 282 13 80 66 17 93 9 317 176 183 204 226 175 61 54 149 89 68 23 336 7 10 341
346 345 214 110 179 248 151 74 125 140 329 134 101 56 10 62 15 160 150 194 116 191 216 7 108 80 296 92 271 261 259 233 215 241 261 284 297 109 52 34 30 346 352 339 354
118 196 272 170 180 275 53 75 99 141 80 26 11 237 92 61 54 40 47 42 54 124 155 150 119 88 109 170 288 290 218 206 193 182 197 225 225 82 36 28 342 320 314 329 19